sat.trackr.live / text

‹ back to catalog

FLOCK 4G-7

NORAD 62624 · 2025-009R

PAYLOAD ACTIVE UNKNOWN

§ Identity

Operator
Country
US
Launch date
2025-01-14
Launch site
AFWTR
Launch vehicle
Mass (kg)
RCS (m²)

Purposes: earth_obs

External: N2YO · Heavens-Above · Gunter

§ Orbital elements

Epoch: 2026-09-19T11:48:01.032768Z

Period
94.06 min
Inclination
97.3882°
Eccentricity
0.0002252
Mean motion
15.30919117 rev/d
Perigee alt
471.5 km
Apogee alt
474.6 km
Semi-major
6,851.2 km
B*
2.1509e-4
RAAN
343.3529°
Arg perigee
20.7816°
Mean anomaly
339.3517°
Rev number
9,332

§ Raw data

FLOCK 4G-71 62624U 25009R   26262.49167862  .00006349  00000+0  21509-3 0  99982 62624  97.3882 343.3529 0002252  20.7816 339.3517 15.30919117 93328

JSON: /api/v1/satellites/62624 · /tle

For live sub-satellite position, see the globe view (requires WebGL).

§ Visibility from observer

Set your observer location to see the next 7 days of passes ≥ 10°. The values pass through the URL so the page stays shareable.

No JS? Fill the form by hand. The geolocation button needs JavaScript.